Regional Weather Roundup
Issued by NWS

Home | Current Version | Previous Version | Graphics & Text | Print | Product List | Glossary On
Versions: 1 2 3 4 5 6 7 8 9 10 11 12 13 14 15 16 17 18 19 20 21 22 23 24 25 26 27 28 29 30 31 32 33 34 35 36 37 38 39 40 41 42 43 44 45 46 47 48 49 50
050
ASUS43 KIND 220459
RWRIN

WEATHER ROUNDUP FOR INDIANA
NATIONAL WEATHER SERVICE INDIANAPOLIS IN
100 AM EDT THU JUN 22 2017

NOTE: "FAIR" INDICATES FEW OR NO CLOUDS BELOW 12,000 FEET WITH NO
SIGNIFICANT WEATHER AND/OR OBSTRUCTIONS TO VISIBILITY.

* - STATION DOES NOT REPORT WEATHER SUCH AS PRECIPITATION OR FOG.

+ - STATION NOT QUALITY CONTROLLED BY THE NATIONAL WEATHER SERVICE.
    USE DATA WITH CAUTION...ESPECIALLY DEWPOINT AND RELATIVE
    HUMIDITY OBSERVATIONS.

INZ001>003-010>013-019-020-220600-
NORTHWEST INDIANA

CITY           SKY/WX    TMP DP  RH WIND       PRES   REMARKS
GARY /AIRPORT/ CLOUDY    73  60  65 SE5       29.89F
KNOX *+        PTCLDY    68  55  64 SE6       29.92F
MICHIGAN CITY+ PTCLDY    68  59  73 SE5       29.92F
MONTICELLO +   CLOUDY    73  68  84 CALM      29.92S
RENSSELAER +   PTCLDY    70  64  83 CALM      29.92S

$$

LMZ046-743>745-220600-
SOUTHERN LAKE MICHIGAN

STATION/POSITION TIME  TEMP    WIND        PRES    WAVE
                       AIR SEA DIR/SP/G            HT
                 (UTC) (F)     (DEG/KT/KT) (MB)    (FT)
BURNS HARBOR     0440   75     140/  6/  9 1012.9F
MICHIGAN CITY    0430   72     130/  7/  9   N/A
5NW MICH CITY    0450   71 68  150/  8/ 10   N/A     1

$$

INZ004-005-014>016-021>024-220600-
NORTH CENTRAL INDIANA

CITY           SKY/WX    TMP DP  RH WIND       PRES   REMARKS
GOSHEN         CLOUDY    69  60  73 SE6       29.94F
SOUTH BEND     MOCLDY    70  58  65 E5        29.93F

$$

INZ006>009-017-018-025>027-220600-
NORTHEAST INDIANA

CITY           SKY/WX    TMP DP  RH WIND       PRES   REMARKS
FORT WAYNE     MOCLDY    70  62  76 E3        29.96S
KENDALLVILLE + PTCLDY    67  58  73 CALM      29.97S

$$

INZ028-029-035-036-043>045-051>053-220600-
WEST CENTRAL INDIANA

CITY           SKY/WX    TMP DP  RH WIND       PRES   REMARKS
LAFAYETTE      CLOUDY    72  70  93 CALM      29.92F
TERRE HAUTE    PTCLDY    77  69  76 S8        29.96R

$$

INZ030>032-037>040-046>048-054>057-064-065-220600-
CENTRAL INDIANA

CITY           SKY/WX    TMP DP  RH WIND       PRES   REMARKS
GREENWOOD *+   CLOUDY    76  68  75 SW7       29.99R
INDIANAPOLIS   PTCLDY    76  70  82 S9        29.97R
-EAGLE CREEK   CLOUDY    77  68  73 S5        29.96S
KOKOMO +       PTCLDY    73  70  90 SE5       29.96S
MT COMFORT *+  CLOUDY    77  70  78 SW6       29.98S
SHELBYVILLE    PTCLDY    76  68  76 S7        29.98R

$$

INZ033-034-041-042-049-050-058-059-220600-
EAST CENTRAL INDIANA

CITY           SKY/WX    TMP DP  RH WIND       PRES   REMARKS
MUNCIE         CLOUDY    78  69  73 SW6       29.96S
RICHMOND +     CLEAR     72  68  88 SW7       30.01R

$$

INZ060-061-067>069-081>083-085>088-220600-
SOUTHWEST INDIANA

CITY           SKY/WX    TMP DP  RH WIND       PRES   REMARKS
EVANSVILLE     CLEAR     76  67  73 S3        29.98F
HUNTINGBURG *+ PTCLDY    75  67  76 S3        29.99S

$$

INZ062-063-066-070>080-084-089>092-220600-
SOUTH CENTRAL AND SOUTHEAST INDIANA

CITY           SKY/WX    TMP DP  RH WIND       PRES   REMARKS
BLOOMINGTON    CLOUDY    76  66  71 SW6       29.99R
MADISON *+     PTCLDY    75  64  69 S3        30.03R
SEYMOUR +      PTCLDY    75  68  78 S6        29.99R

$$





USA.gov is the U.S. government's official web portal to all federal, state and local government web resources and services.